Location: Recife
(8.0585°S, 34.8848°W)
Time: 10:38:20
(UTC-03:00)

Courier 1B Rocket - Pass Details

Date: 17 April 2026
Orbit: 920 x 1201 km, 28.2° (Epoch: 13 May)

Event Time Altitude Azimuth Distance (km) Brightness Sun altitude
Rises 16:02:32 0° 273° (W) 4,093 9.9 17.0°
Reaches altitude 10° 16:06:32 10° 291° (WNW) 3,119 10.2 16.1°
Maximum altitude 16:11:24 18° 330° (NNW) 2,555 8.0 14.9°
Drops below altitude 10° 16:16:11 10° 9° (N) 3,044 7.7 13.7°
Sets 16:20:02 0° 28° (NNE) 3,956 8.0 12.8°
